Location: Engelmannsreuth
(49.8125°N, 11.6497°E)
Time: 09:30:05
(UTC+00:00)

Cosmos 1725 Rocket - Pass Details

Date: 17 February 2020
Orbit: 963 x 990 km, 82.9° (Epoch: 03 April)

Event Time Altitude Azimuth Distance (km) Brightness Sun altitude
Rises 05:17:34 0° 349° (N) 3,680 6.8 -10.8°
Reaches altitude 10° 05:20:04 10° 349° (N) 2,732 6.2 -10.4°
Maximum altitude 05:26:20 82° 263° (W) 996 4.0 -9.4°
Drops below altitude 10° 05:32:36 10° 177° (S) 2,732 6.5 -8.4°
Sets 05:35:07 0° 176° (S) 3,679 7.2 -8.0°
